Tracking 29892 objects as of 21-Nov-2024
HD Live streaming from Space Station
objects crossing your sky now

STARLINK-5039

Track STARLINK-5039 now!
10-day predictions
STARLINK-5039 is classified as:


NORAD ID: 57247
Int'l Code: 2023-094AF
Perigee: 565.1 km
Apogee: 567.3 km
Inclination: 43.0 °
Period: 95.8 minutes
Semi major axis: 6937 km
RCS: Unknown
Launch date: July 7, 2023
Source: United States (US)
Launch site: AIR FORCE WESTERN TEST RANGE (AFWTR)
Your satellite tracking list
Your tracking list is empty




NASA's NSSDC Master Catalog

Two Line Element Set (TLE):
1 57247U 23094AF  24325.35268093  .00000541  00000-0  55100-4 0  9990
2 57247  43.0049  75.0582 0001603 279.0548  81.0113 15.02537366 75913
Source of the keplerian elements: AFSPC